GW4545 Weather Reports


time (UTC)temp
F
wind
direction
speed
knots
gust
knots
rain 1hr
in
rain 24hr
in
rain mn
in
humidity
%
barometer
mb
20260905140100 52 0 0.0 0.0 0.00 0.02 0.01 96 1018.2
20260905134558 51 0 0.0 0.0 0.00 0.02 0.01 96 1018.0
20260905133051 51 0 0.0 0.0 0.00 0.02 0.01 96 1018.0
20260905131604 51 0 0.0 0.0 0.00 0.02 0.01 96 1018.1
20260905130055 51 0 0.0 0.0 0.00 0.02 0.01 96 1018.0
20260905124552 51 0 0.0 0.0 0.00 0.02 0.01 96 1017.9
20260905123102 51 0 0.0 0.0 0.00 0.02 0.01 96 1017.9
20260905121602 51 0 0.0 1.7 0.00 0.02 0.01 96 1017.9
20260905120052 51 0 0.0 0.0 0.00 0.02 0.01 96 1017.7
20260905114554 51 306 0.0 0.9 0.00 0.02 0.01 96 1017.7
20260905113051 51 306 0.0 1.7 0.00 0.02 0.01 96 1017.7
20260905111641 51 0 0.0 0.9 0.00 0.02 0.01 96 1017.6
20260905110057 51 258 0.0 0.9 0.00 0.02 0.01 96 1017.7
20260905104547 51 258 0.0 1.7 0.00 0.02 0.01 96 1017.8
20260905103102 50 258 0.0 1.7 0.00 0.02 0.01 96 1017.8
20260905101604 50 0 0.0 0.0 0.00 0.02 0.01 96 1017.8
20260905100052 50 0 0.0 0.0 0.00 0.02 0.01 96 1017.7
20260905094549 50 0 0.0 0.0 0.00 0.02 0.01 96 1017.6
20260905093106 50 0 0.0 0.0 0.00 0.02 0.01 96 1017.6
20260905091553 49 0 0.0 0.0 0.00 0.02 0.01 96 1017.5
20260905090059 49 0 0.0 0.0 0.00 0.02 0.01 96 1017.4
20260905084604 49 0 0.0 0.0 0.01 0.02 0.01 96 1017.5
20260905083052 48 0 0.0 0.0 0.01 0.02 0.01 96 1017.5
20260905081552 48 258 0.0 1.7 0.01 0.02 0.01 96 1017.3
20260905080058 47 0 0.0 0.0 0.01 0.02 0.01 95 1017.3
20260905074558 47 0 0.0 0.9 0.00 0.01 0.00 95 1017.2
20260905073056 48 0 0.0 0.0 0.00 0.01 0.00 95 1017.2
20260905071549 48 0 0.0 0.9 0.00 0.01 0.00 95 1017.1
20260905070059 48 0 0.0 0.0 0.00 0.01 0.00 95 1017.1
20260905064601 48 0 0.0 0.9 0.00 0.01 0.01 95 1016.9
20260905063055 49 258 0.0 2.6 0.00 0.01 0.01 95 1016.7
20260905061556 49 0 0.0 0.0 0.00 0.01 0.01 94 1016.7
20260905060051 50 0 0.0 0.0 0.00 0.01 0.01 94 1016.8
20260905054555 50 0 0.0 0.9 0.00 0.02 0.01 94 1016.7
20260905053103 51 0 0.0 1.7 0.00 0.02 0.01 95 1016.8
20260905051551 51 264 0.0 2.6 0.00 0.02 0.01 94 1016.9
20260905050059 51 261 0.0 1.7 0.00 0.02 0.01 94 1016.9
20260905044557 51 0 0.0 0.0 0.00 0.02 0.01 93 1016.7
20260905043058 52 0 0.0 1.7 0.00 0.02 0.01 93 1016.7
20260905041548 52 271 0.9 3.5 0.00 0.02 0.01 93 1016.6
20260905040106 53 0 0.0 2.6 0.00 0.02 0.01 92 1016.5
20260905034610 53 260 0.0 3.5 0.00 0.02 0.01 92 1016.4
20260905033114 54 267 1.7 3.5 0.00 0.02 0.01 92 1016.1
20260905031612 54 254 0.9 2.6 0.00 0.02 0.01 92 1016.0
20260905024601 56 171 0.9 2.6 0.00 0.02 0.01 90 1015.7
20260905023125 57 0 0.9 3.5 0.00 0.02 0.01 88 1015.5
20260905021600 58 208 1.7 6.1 0.00 0.02 0.01 87 1015.6
20260905020055 59 211 0.9 3.5 0.00 0.02 0.01 87 1015.7
20260905014554 60 220 0.9 3.5 0.00 0.03 0.01 85 1015.6
20260905013049 62 271 2.6 5.2 0.00 0.03 0.01 81 1015.3
20260905011550 62 173 0.0 1.7 0.00 0.03 0.01 76 1015.4
20260905010107 62 0 0.0 0.9 0.00 0.03 0.01 77 1015.4
20260905004607 62 0 0.0 3.5 0.00 0.04 0.01 78 1015.5
20260905003056 62 126 0.0 1.7 0.00 0.04 0.01 77 1015.3
20260905001559 63 198 0.0 3.5 0.00 0.04 0.01 78 1015.3
20260904234550 63 0 0.9 4.3 0.00 0.06 0.01 78 1014.8
20260904233058 62 69 0.9 4.3 0.00 0.06 0.01 79 1014.9
20260904231559 62 0 0.0 4.3 0.00 0.06 0.01 81 1014.7
20260904230109 62 223 2.6 6.1 0.00 0.06 0.01 81 1014.7
20260904224549 63 172 1.7 3.5 0.00 0.09 0.01 77 1014.5
20260904223058 63 0 0.0 1.7 0.00 0.09 0.01 77 1014.4
20260904221557 64 136 0.9 5.2 0.00 0.09 0.01 73 1014.5
20260904214548 63 17 0.9 3.5 0.00 0.15 0.01 78 1014.4
20260904213058 62 0 0.0 2.6 0.00 0.15 0.01 79 1014.3
20260904211554 62 191 0.0 5.2 0.00 0.15 0.01 76 1014.1
20260904210048 63 235 0.9 6.1 0.00 0.15 0.01 73 1014.1
20260904204549 63 0 0.0 3.5 0.00 0.20 0.01 77 1014.0
20260904203101 62 254 0.9 3.5 0.00 0.20 0.01 80 1014.1
20260904201550 61 232 0.9 2.6 0.00 0.20 0.01 85 1014.1
20260904200055 60 119 0.0 2.6 0.00 0.20 0.01 85 1014.3
20260904194555 61 0 0.0 2.6 0.00 0.25 0.01 84 1014.3
20260904193052 60 165 0.0 4.3 0.00 0.25 0.01 83 1014.4
20260904191556 60 250 0.9 3.5 0.00 0.25 0.01 83 1014.3
20260904190058 59 111 0.0 2.6 0.00 0.25 0.01 85 1014.6
20260904184555 58 0 0.9 2.6 0.00 0.27 0.01 85 1014.5
20260904183107 58 321 0.9 3.5 0.00 0.27 0.01 89 1014.5
20260904181559 57 360 0.9 2.6 0.00 0.27 0.01 90 1014.5
20260904180059 56 0 0.9 2.6 0.00 0.27 0.01 91 1014.3
20260904174550 56 11 0.9 2.6 0.00 0.27 0.01 94 1014.2
20260904173101 55 0 0.0 2.6 0.01 0.27 0.01 95 1014.0
20260904171610 54 0 0.9 1.7 0.01 0.27 0.01 96 1013.9
20260904170105 54 348 0.0 1.7 0.01 0.27 0.01 96 1014.0
20260904164600 54 0 0.0 1.7 0.01 0.29 0.01 97 1013.9
20260904163057 54 0 0.0 1.7 0.00 0.28 0.00 96 1013.7
20260904161552 53 0 0.0 0.9 0.00 0.28 0.00 96 1013.7
20260904160052 53 0 0.0 0.0 0.00 0.28 0.00 96 1013.7
20260904154559 53 0 0.0 0.0 0.00 0.33 0.00 96 1013.6
20260904153109 53 0 0.0 1.7 0.00 0.33 0.00 96 1013.6
20260904151554 53 0 0.0 0.9 0.00 0.33 0.00 96 1013.3
20260904144603 53 0 0.0 0.9 0.00 0.39 0.00 96 1012.9
20260904143055 53 0 0.0 1.7 0.00 0.39 0.00 96 1012.8
20260904141552 53 234 0.9 1.7 0.00 0.39 0.00 96 1012.6